Airfield :
LOGIN :

Register | Disclaimer

   EN    FR    IT 

 










Legend :    VFR   Marginal VFR   IFR   Intensive IFR   Very Intensive IFR
Visi :
Ceiling :
>= 8 km
>= 3000ft
5 to 8 km
1000 to 3000 ft
1500m to 5 km
500 to 1000 ft
800 to 1500m
200 to 500 ft
< 800m
< 200 ft
Symbols :   Thunderstorms  Fog  Heavy snow  Heavy precipitations  Wind > 20 kt
SIGMETs :     Misc.  Thunderstorms  Icing  Turbulence  Mountain Waves  Volcanic Ashes






- Airport Elevation : 29 ft


LIRM - Grazzanise Caserta

CURRENT METAR :
  • 280355Z 01007KT CAVOK 11/08 Q1010

EXPIRED METARs :
  • 280255Z 02005KT CAVOK 11/08 Q1010 RMK BKN SCT100 BKN200 VIS MIN 9999 WIND THR06 07006KT BLU
  • 280155Z 06005KT 9999 SCT070 11/08 Q1010
  • 272355Z 36005KT CAVOK 12/09 Q1010 RMK BKN SCT100 SCT200 VIS MIN 9999 WIND THR06 05004KT BLU
  • 280055Z 36005KT CAVOK 12/09 Q1010 RMK BKN SCT100 BKN200 VIS MIN 9999 WIND THR06 05004KT BLU

TAF AMD TAF LIRM
Valid from the 28 at 03:00 until the 28 at 12:00 UTC


280221Z 2803/2812 02005KT 9999 SCT040



MET'MAP, your aeronautical weather chart ! - Copyright ORBIFLY December 2007 - Disclaimer

ORBIFLY MET'MAP TEAM :

Programming & Development : Alexandra Zaïnal
Original concept : Baudouin d'Aumeries
Technical & hardware support : Manuel Goepfert
Assistance : Marc-Olivier Méhu




SOURCES & CREDITS :

   NOAA